This is the latest recevied weather packets stored in our database for station/object N2PPN. If no packets are shown the sender has not sent any weather packets the latest 1 day(s).
| Time | Temp. | Humidity | Pressure | Rain* | Wind** | Luminosity | Snow |
|---|---|---|---|---|---|---|---|
| 1778037289 | 15° C | 84% | 1014.4 hPa | 0 mm | 2.68 m/s, 205° | 0 W/m² | - |
| 1778036986 | 15° C | 84% | 1014.5 hPa | 0 mm | 3.13 m/s, 243° | 0 W/m² | - |
| 1778036684 | 15° C | 84% | 1014.5 hPa | 0 mm | 3.58 m/s, 220° | 0 W/m² | - |
| 1778036381 | 15.56° C | 84% | 1014.6 hPa | 0 mm | 2.68 m/s, 235° | 0 W/m² | - |
| 1778036078 | 15.56° C | 84% | 1014.6 hPa | 0 mm | 1.79 m/s, 243° | 0 W/m² | - |
| 1778035774 | 15.56° C | 84% | 1014.5 hPa | 0 mm | 1.79 m/s, 213° | 0 W/m² | - |
| 1778035471 | 15.56° C | 84% | 1014.5 hPa | 0 mm | 4.92 m/s, 192° | 0 W/m² | - |
| 1778035167 | 15.56° C | 84% | 1014.8 hPa | 0 mm | 4.02 m/s, 215° | 0 W/m² | - |
| 1778034864 | 15.56° C | 84% | 1014.7 hPa | 0 mm | 3.13 m/s, 207° | 0 W/m² | - |
| 1778034561 | 15.56° C | 83% | 1014.6 hPa | 0 mm | 4.92 m/s, 218° | 0 W/m² | - |
| 1778034259 | 15.56° C | 83% | 1014.5 hPa | 0 mm | 5.81 m/s, 238° | 0 W/m² | - |
| 1778033956 | 15.56° C | 83% | 1014.6 hPa | 0 mm | 4.92 m/s, 238° | 0 W/m² | - |
| 1778033653 | 15.56° C | 82% | 1014.6 hPa | 0 mm | 4.02 m/s, 223° | 0 W/m² | - |
| 1778033350 | 15.56° C | 82% | 1014.4 hPa | 0 mm | 2.68 m/s, 234° | 0 W/m² | - |
| 1778033048 | 15.56° C | 82% | 1014.5 hPa | 0 mm | 2.24 m/s, 264° | 0 W/m² | - |
| 1778032745 | 15.56° C | 81% | 1014.7 hPa | 0 mm | 3.13 m/s, 277° | 0 W/m² | - |
| 1778032443 | 15.56° C | 81% | 1014.5 hPa | 0 mm | 4.02 m/s, 237° | 0 W/m² | - |
| 1778032139 | 15.56° C | 80% | 1014.5 hPa | 0 mm | 6.71 m/s, 198° | 0 W/m² | - |
| 1778031836 | 15.56° C | 80% | 1014.4 hPa | 0 mm | 4.47 m/s, 194° | 0 W/m² | - |
| 1778031533 | 15.56° C | 80% | 1014.6 hPa | 0 mm | 4.47 m/s, 200° | 0 W/m² | - |
| 1778031231 | 15.56° C | 80% | 1014.3 hPa | 0 mm | 4.92 m/s, 234° | 0 W/m² | - |
| 1778030926 | 16.11° C | 79% | 1014.3 hPa | 0 mm | 4.47 m/s, 192° | 0 W/m² | - |
| 1778030623 | 16.11° C | 78% | 1014.3 hPa | 0 mm | 4.92 m/s, 218° | 0 W/m² | - |
| 1778030321 | 16.11° C | 78% | 1014.1 hPa | 0 mm | 2.68 m/s, 218° | 0 W/m² | - |
| 1778030017 | 16.11° C | 78% | 1014.2 hPa | 0 mm | 3.13 m/s, 243° | 0 W/m² | - |
* Rain latest hour (hover to see other rain measurements)
** Current wind speed in m/s (hover to see current wind gust speed)